Regional Weather Roundup
Issued by NWS Upton, NY

Current Version | Previous Version | Graphics & Text | Print | Product List | Glossary Off
Versions: 1 2 3 4 5 6 7 8 9 10 11 12 13 14 15 16 17 18 19 20 21 22 23 24 25 26 27 28 29 30 31 32 33 34 35 36 37 38 39 40 41 42 43 44 45 46 47 48 49 50

000
ASUS41 KOKX 292004
RWROKX

REGIONAL WEATHER ROUNDUP
NATIONAL WEATHER SERVICE NEW YORK NY
400 PM EDT THU SEP 29 2016

NOTE: "FAIR" INDICATES FEW OR NO CLOUDS BELOW 12,000 FEET WITH NO
SIGNIFICANT WEATHER AND/OR OBSTRUCTIONS TO VISIBILITY.

NYZ071-072-176-178-NJZ106-104-292100-
NEW YORK CITY METRO AREA

CITY           SKY/WX    TMP DP  RH WIND       PRES   REMARKS
Central Park   CLOUDY    64  52  64 E15G23    30.37F
LaGuardia APRT CLOUDY    66  53  63 E18G24    30.34F
Kennedy INTL   CLOUDY    63  51  65 E13       30.36F
Newark/Liberty CLOUDY    64  52  64 NE14      30.34F
Bronx Bot Gard   N/A     64  52  63 SE8       30.36F
Wall St Helipt CLOUDY   N/A N/A N/A NE18      30.34F
Teterboro      CLOUDY    65  51  60 E12       30.34F
$$

NYZ177-179-078>081-292100-
LONG ISLAND NEW YORK

CITY           SKY/WX    TMP DP  RH WIND       PRES   REMARKS
Farmingdale    CLOUDY    62  52  69 E15G24    30.36F
MacArthur/ISP  CLOUDY    62  52  69 E14G26    30.37S
Shirley        CLOUDY    61  52  72 E8        30.38S
Riverhead      NOT AVBL
Westhampton    CLOUDY    61  51  70 NE16G26   30.39S
Southampton      N/A     61  54  77 NE12      30.35R
Bridgehampton    N/A     61  54  77 SE5       30.24S
East Hampton   CLOUDY    60  51  71 E17G24    30.39S
Montauk          N/A     61  52  72 NE15G25   30.41S
$$

NYZ052-065-067-292100-
HUDSON VALLEY

CITY           SKY/WX    TMP DP  RH WIND       PRES   REMARKS
White Plains   CLOUDY    64  51  62 E9        30.35F
Newburgh       MOSUNNY   64  50  59 E14G23    30.37F
Montgomery     CLOUDY    66  49  54 E12       30.36S
Poughkeepsie   MOSUNNY   66  46  48 E9        30.36S
Albany         CLOUDY    69  44  40 E8        30.40F
$$

NJZ001-105-106-008-010-013-015-019>022-104-292100-
NEW JERSEY

CITY           SKY/WX    TMP DP  RH WIND       PRES   REMARKS
Newark/Liberty CLOUDY    64  52  64 NE14      30.34F
Teterboro      CLOUDY    65  51  60 E12       30.34F
Caldwell       CLOUDY    64  52  64 E15G21    30.34F
Morristown     CLOUDY    63  54  72 E12G24    30.34F
Somerville     CLOUDY    63  53  70 E7        30.32S
Linden         NOT AVBL
Sussex         CLOUDY    62  53  72 NE8       30.35F
Abdover          N/A     60  51  72 VRB6      30.35S
Trenton        CLOUDY    61  56  83 E14G25    30.30S
Millville      LGT RAIN  63  63 100 E18G31    30.23R
Atlantic City  LGT RAIN  63  61  93 NE21G28   30.25S FOG
Wrightstown    LGT RAIN  61  59  94 NE20G29   30.26S
Toms River     LGT RAIN  61  60  97 NE17G25   30.31S
Belmar         LGT RAIN  61  58  90 E16G33    30.32F
$$

PAZ047>061-062-071-292100-
EASTERN PENNSYLVANIA

CITY           SKY/WX    TMP DP  RH WIND       PRES   REMARKS
Philadelphia   LGT RAIN  63  60  90 E25G39    30.25S
Allentown      LGT RAIN  61  53  75 E15       30.30F
Scranton       CLOUDY    59  52  77 E10       30.32S
$$

CTZ002-004>006-009-010-012-RIZ004-006-007-MAZ004-011-015-292100-
SOUTHERN NEW ENGLAND
 IN CT

CITY           SKY/WX    TMP DP  RH WIND       PRES   REMARKS
Bradley INTL   PTSUNNY   63  45  51 NE14      30.43F
Hartford       SUNNY     64  49  57 NE13G21   30.41F
Danbury        CLOUDY    63  48  58 NE10G17   30.39S
Wtrbury/Oxford MOSUNNY   61  45  55 MISG      30.40S
Bridgeport     CLOUDY    68  50  52 NE13      30.37S
Meriden        MOSUNNY   66  48  52 E10G18    30.40S
New Haven      CLOUDY    66  49  54 NE12      30.38S
Chester        FAIR      64  48  55 NE14      30.39S
Groton         MOSUNNY   64  49  57 NE16G28   30.40R
Wilimantic     SUNNY     64  48  56 NE10      30.43F

 IN RI

CITY           SKY/WX    TMP DP  RH WIND       PRES   REMARKS
Providence     CLOUDY    60  48  64 NE16      30.45F
Block Island   CLOUDY    60  52  74 NE18G28   30.40F
Westerly       MOSUNNY   63  48  58 NE16G26   30.42S
 IN MA

CITY           SKY/WX    TMP DP  RH WIND       PRES   REMARKS
Boston         PTSUNNY   58  49  72 NE16      30.49S
Worcester      SUNNY     58  45  62 NE12G21   30.45F
Westfield      SUNNY     64  46  52 NE10G18   30.43S
Provincetown   CLOUDY    59  52  77 NE17G24   30.46S
Nantucket      CLOUDY    61  53  75 NE16G30   30.41R
$$

ANZ330-335-338-340-345-350-353-355-292100-
COASTAL MARINE OBSERVATIONS


STATION/POSITION TIME  SKY/WX   TEMP    WIND        PRES    VSBY  WAVE
                                AIR SEA DIR/SP/G                  HT/PER
                 (UTC)          (F)     (DEG/KT/KT) (MB)    (MI)  (FT/S)
NY HARB ENTRANCE 1850            63 70   70/ 29/ 37 1026.4         10/ 8
20S FIRE ISLAND  1850            63 68   60/ 27/ 33 1025.9         10/ 8
GREAT SOUTH BAY  1930            62 66   70/ 17/ 25   N/A
23 SSW MONTAUK P 1850            61 65   60/ 25/ 31 1028.1         11/ 7
15 E BARNEGAT LI 1930               70                N/A          11/ 8
HUDSON CANYON    1850            65 69              1024.3         11/ 8
KINGS POINT      1930            64 71              1027.8
EXECUTION ROCKS  1945            65      80/ 17/ 23   N/A
CENTRAL LI SOUND 1915            64 71   80/ 17/ 23   N/A           4/ 5
EASTERN LI SOUND NOT AVBL
ROBBINS REEF     1930            63      90/ 18/ 21 1027.4
$$


>>>>>>>>>>>>>>>>>>>>>>>>>>>> KEY <<<<<<<<<<<<<<<<<<<<<<<<<<<
>                                                          <
>     SKY/WX - Sky Condition/Present Weather               <
>     TMP    - Temperature in Fahrenheit                   <
>     DP     - Dew Point in Fahrenheit                     <
>     RH     - Relative Humidity in Percent                <
>     WIND   - Direction (from) and Speed in MPH           <
>     PRES   - Mean Sea Level Pressure (inches of Hg)      <
>     WCI    - Wind Chill Index                            <
>     VSB    - VISIBILITY IN MILES                         <
>     HX     - HEAT INDEX                                  <
>     TC     - TEMPERATURE IN CELSIUS                      <
>     VRB    - VARIABLE WIND DIRECTION                     <
>                                                          <
>>>>>>>>>>>>>>>>>>>>>>>>>>>> KEY <<<<<<<<<<<<<<<<<<<<<<<<<<<




USA.gov is the U.S. government's official web portal to all federal, state and local government web resources and services.